Theta_e
306 307 307 307 306 305 302 298 300 308 307 298 297 297 298 299 300 301 300 300 299 298 298 298 299 300 303 306 308 305 309 306 301 302 307 309 307 306 307 302 301 301 301 302
307 307 307 306 305 305 301 300 301 309 306 293 296 297 298 300 299 300 299 299 300 300 299 298 298 300 305 305 307 307 308 304 299 300 304 306 306 306 306 305 306 303 300 302
306 306 307 306 305 305 303 303 299 304 304 300 297 298 298 298 305 302 302 301 303 300 299 300 299 300 303 305 312 319 313 305 304 298 302 306 304 303 304 307 303 303 303 307
306 306 306 306 306 305 303 301 298 298 297 299 299 300 301 301 301 306 307 304 306 304 300 298 298 300 302 305 315 311 312 307 304 305 304 303 305 307 304 305 308 304 307 307
305 305 305 306 305 303 302 300 299 300 298 296 298 298 300 300 302 304 304 303 305 306 302 299 300 304 304 303 309 312 311 307 307 305 307 305 305 306 307 307 307 307 307 309
304 304 305 306 305 302 300 299 300 299 294 297 297 299 300 301 304 305 308 304 306 305 305 307 309 310 310 309 306 307 312 311 307 302 307 307 303 309 310 311 312 311 309 315
304 304 304 304 305 300 299 298 298 298 293 297 297 298 299 301 302 301 304 306 306 309 313 313 310 308 308 308 309 308 311 311 308 303 306 297 307 313 313 312 315 316 318 318
304 303 304 304 305 303 300 298 299 298 293 296 296 297 298 300 302 301 303 306 310 313 311 305 304 304 304 305 305 306 311 313 307 302 302 304 308 316 316 313 313 323 319 318
303 303 303 304 304 303 300 298 298 299 295 293 296 296 297 299 299 300 303 309 311 313 307 303 299 296 300 300 303 309 310 312 309 305 299 296 308 317 322 321 308 322 322 320
303 303 304 304 303 303 299 298 298 299 295 297 298 297 297 299 299 300 302 303 307 310 305 300 299 298 302 297 299 302 304 306 302 305 304 307 313 319 322 307 309 324 322 323
303 303 304 303 303 303 300 298 298 297 295 296 298 299 298 298 300 299 301 301 305 306 301 302 301 299 303 303 305 303 303 301 300 303 301 299 318 320 313 320 326 323 322 323
303 302 303 303 303 303 300 296 299 298 295 295 298 300 302 301 302 302 300 302 303 308 303 304 304 303 305 304 302 312 303 307 304 306 304 316 320 321 322 323 323 321 319 321
302 302 303 302 303 303 302 298 298 297 295 295 295 298 302 302 302 305 297 303 307 308 311 307 306 301 304 304 306 307 311 315 314 312 315 317 320 323 324 324 324 324 322 320
302 302 303 303 303 303 303 298 298 297 294 291 297 302 301 304 303 302 302 304 310 311 311 307 305 301 304 304 304 305 311 314 311 313 317 319 321 323 324 324 324 323 323 323
302 302 303 303 303 303 302 302 301 300 296 291 294 300 302 303 303 302 302 300 301 305 304 305 303 307 305 307 305 304 311 311 312 312 317 319 318 323 325 323 324 324 322 321
303 303 303 303 303 303 301 298 301 301 299 294 292 300 300 303 304 302 300 300 300 302 304 304 308 308 308 303 302 306 312 312 314 315 319 321 324 326 327 325 325 324 323 323
302 303 303 303 303 301 298 298 302 302 302 296 293 295 302 303 303 302 301 302 303 303 302 302 304 308 308 304 301 307 310 311 312 318 321 318 321 321 325 325 324 321 322 322
303 302 303 304 304 303 301 305 304 304 300 299 292 295 300 306 306 304 304 301 302 303 304 305 304 306 307 298 305 308 311 312 313 314 319 320 320 322 323 324 322 321 320 319
302 302 304 304 302 301 301 306 307 304 300 295 293 293 296 304 304 306 307 306 299 303 300 302 303 300 297 302 306 308 310 309 311 312 316 319 319 319 322 322 320 320 319 319
300 301 300 299 302 303 306 303 298 298 300 297 293 296 296 300 303 302 302 304 303 298 301 303 299 298 305 306 308 309 310 310 312 311 312 315 316 319 321 322 323 322 320 319
296 294 297 298 301 303 299 295 294 296 292 297 298 297 296 304 300 300 302 301 302 296 300 298 297 298 303 307 308 309 310 311 311 313 314 315 313 313 319 322 322 322 320 319
296 296 298 298 299 297 293 292 295 294 293 300 299 302 300 303 304 302 302 299 300 293 304 298 294 302 305 306 306 308 309 310 311 314 314 315 315 314 317 323 323 323 322 320
298 295 294 295 294 288 288 288 292 293 300 302 303 299 303 304 305 302 300 295 295 303 298 296 300 304 305 305 306 308 310 311 312 313 315 316 316 316 318 321 324 324 321 320
294 292 285 290 288 290 292 295 296 299 301 300 299 300 300 303 301 302 295 300 300 294 292 293 300 303 304 305 307 307 309 310 311 312 314 315 317 315 319 321 323 323 321 320
293 293 285 289 294 294 295 297 297 300 302 301 301 300 302 301 298 301 299 295 292 290 289 295 302 303 305 306 307 307 307 310 310 311 314 314 315 319 319 322 322 320 319 319
293 292 291 294 292 292 296 297 298 303 302 301 302 298 295 294 295 293 293 292 289 292 297 302 302 302 302 303 305 307 309 310 309 311 315 316 316 315 315 317 318 317 317 317
292 292 295 293 293 293 296 301 301 303 302 297 298 292 291 298 293 292 298 293 295 300 300 302 301 301 302 305 307 308 309 310 311 310 311 311 313 313 312 310 313 315 317 318
Wind_Speed
22 22 23 24 27 30 5 3 2 2 3 2 1 4 4 2 1 1 1 0 1 2 3 0 1 4 0 1 6 9 6 3 5 9 1 1 0 2 5 4 5 1 4 5
21 22 23 24 26 23 4 3 2 1 3 2 2 1 2 2 2 0 1 1 1 1 1 1 1 1 1 0 6 7 9 5 3 4 4 4 5 5 4 4 1 6 4 5
21 22 22 24 26 22 1 1 1 2 3 2 1 3 1 4 3 2 1 2 2 1 2 1 2 2 1 4 2 4 8 4 5 6 1 3 5 5 6 5 4 6 6 7
20 22 22 24 27 21 3 4 3 2 2 2 2 0 1 3 2 2 5 4 5 1 2 1 2 3 5 1 2 3 4 4 4 7 8 7 6 7 11 8 2 7 1 6
19 21 21 23 26 19 3 3 2 1 2 3 1 3 1 1 1 0 3 4 4 2 3 1 1 8 2 3 3 2 0 3 3 2 2 6 5 10 12 9 4 9 4 7
19 19 20 20 23 13 3 2 0 3 2 1 2 2 3 1 2 2 1 4 2 1 2 7 11 10 11 7 5 4 2 3 4 4 2 2 4 7 8 5 7 4 6 2
16 17 18 18 18 11 2 2 2 2 2 1 2 2 1 3 2 2 1 3 2 4 11 12 3 5 9 9 12 9 3 3 1 2 3 8 3 3 3 4 1 1 4 5
15 15 16 17 14 13 3 2 2 2 1 1 4 3 2 3 1 3 3 4 3 8 6 4 4 3 2 6 8 10 7 3 3 5 8 3 4 2 2 2 5 2 4 3
13 15 14 15 13 12 2 3 2 2 2 2 1 1 1 2 1 3 3 1 5 3 2 2 5 7 5 7 5 4 6 3 6 3 8 12 2 4 2 4 5 1 4 4
12 11 13 13 13 9 4 2 4 2 3 1 3 3 1 1 1 2 2 5 2 2 2 4 4 6 1 6 8 7 7 4 12 7 6 3 2 4 1 9 0 3 2 4
12 11 12 13 12 13 5 2 4 3 2 5 4 3 3 2 1 2 3 4 2 2 4 3 2 3 1 3 2 3 9 9 6 4 7 11 3 3 5 4 3 2 2 3
11 11 12 12 12 11 3 1 2 2 4 4 3 6 9 7 5 2 0 3 1 2 3 2 2 2 2 2 5 2 4 3 3 6 3 2 1 1 1 4 6 2 3 4
12 11 12 11 11 10 7 3 2 2 2 4 4 3 2 7 15 7 3 2 2 2 1 2 1 3 2 2 1 3 2 2 2 4 4 3 2 3 3 2 5 3 4 7
12 12 12 12 11 10 8 3 1 1 1 4 1 3 3 1 5 14 13 3 1 1 1 1 2 2 2 1 3 4 3 2 2 3 4 4 7 5 2 1 2 1 5 7
12 13 13 12 11 11 4 3 3 3 3 4 6 11 1 4 4 8 11 11 4 2 2 1 2 1 3 1 3 3 2 4 3 2 7 5 3 2 0 1 2 4 6 5
14 14 14 13 11 9 2 2 3 5 3 2 3 4 3 3 3 6 7 7 5 3 2 1 2 1 2 3 3 2 3 5 5 4 7 5 5 2 2 2 1 3 4 4
15 15 15 14 9 2 3 3 3 6 3 2 4 4 1 2 3 3 3 6 3 4 2 3 2 2 2 2 3 5 9 10 8 5 2 1 2 3 2 3 4 4 5 6
16 17 18 13 5 5 4 1 10 4 2 2 3 4 3 3 1 3 2 4 3 4 2 2 3 3 3 5 4 9 11 12 6 7 5 4 4 1 4 5 6 5 6 7
17 15 3 3 2 2 1 5 6 4 3 2 2 3 1 4 2 1 3 2 4 2 5 4 5 4 5 2 5 7 9 7 12 14 6 3 3 2 6 7 6 5 5 6
12 2 3 3 2 8 0 4 2 3 3 2 3 1 2 2 2 2 2 2 1 3 3 3 6 6 4 2 4 6 7 7 8 10 6 3 4 4 5 7 7 7 8 7
1 1 0 3 7 3 1 2 2 2 2 3 3 4 3 1 2 2 1 1 1 3 3 3 3 3 4 3 6 5 6 6 7 9 12 11 10 10 6 6 8 8 9 9
2 2 2 2 2 1 2 1 2 3 2 4 2 1 3 0 1 2 1 2 1 4 2 4 3 4 2 7 10 10 8 8 9 10 12 12 11 10 8 7 8 9 10 11
1 2 2 1 1 1 3 3 2 1 2 1 2 1 1 2 2 2 2 4 4 1 4 2 2 3 5 8 8 10 11 11 11 11 11 11 12 9 9 7 7 9 10 11
2 2 1 2 3 3 2 2 2 3 4 3 2 2 1 0 3 1 4 2 3 3 2 1 3 9 11 11 11 11 13 12 13 12 12 13 10 8 6 6 8 11 12 12
1 2 2 3 1 2 3 2 1 0 3 3 2 2 2 2 3 2 2 3 1 2 2 3 3 11 13 11 11 11 12 11 10 10 11 9 6 7 7 7 8 10 11 13
2 2 2 1 2 1 1 1 1 3 3 1 0 1 2 1 2 2 4 2 1 1 4 6 8 11 11 11 11 11 9 8 8 8 3 7 8 9 9 10 9 9 11 12
2 1 1 2 2 2 1 2 4 5 3 2 1 2 1 2 3 3 1 2 2 6 8 6 8 10 11 10 9 5 4 3 3 7 10 11 10 12 12 11 9 9 10 10
Wind_Direction
350 350 354 354 351 346 30 329 76 28 279 121 355 166 178 201 181 311 56 112 322 33 42 44 134 182 208 146 152 164 180 162 217 240 46 29 192 232 188 241 183 210 300 252
351 353 355 355 353 357 322 38 344 58 282 144 169 207 167 222 164 252 107 68 353 20 5 9 237 230 128 262 174 165 173 201 225 192 165 143 226 197 191 117 157 192 247 264
355 355 355 356 353 355 323 302 112 45 61 33 109 156 128 174 51 79 296 38 71 23 357 59 324 305 286 336 88 108 144 155 237 268 41 105 173 186 191 231 179 156 231 286
357 358 355 358 353 353 295 6 71 9 104 87 60 172 252 140 128 47 25 94 64 50 208 283 243 353 309 207 120 88 185 223 207 264 245 240 232 178 179 216 207 237 203 216
1 360 360 2 357 348 72 17 347 68 78 310 250 7 40 120 108 286 80 79 349 209 212 316 90 356 293 13 349 82 110 181 172 242 267 187 234 241 231 221 189 265 266 263
359 359 2 7 5 357 50 28 145 285 21 70 208 122 150 152 332 124 69 31 346 254 125 307 285 263 264 274 327 322 289 166 179 232 342 199 227 230 210 209 203 196 209 316
1 0 5 6 11 30 14 38 292 286 126 270 103 145 359 161 9 316 348 335 303 48 313 287 246 230 244 243 243 231 288 134 246 214 203 226 82 342 262 252 90 237 295 345
2 357 4 6 15 18 28 18 324 0 141 299 233 201 251 280 288 260 280 290 359 326 304 283 238 208 230 224 218 199 218 208 184 237 218 316 152 74 168 211 186 14 296 290
358 360 1 4 14 12 18 39 323 320 302 167 316 253 274 251 230 245 249 307 335 300 275 251 228 203 193 190 169 90 161 251 242 170 238 235 170 129 329 187 220 170 276 255
351 354 359 1 3 29 3 44 7 300 297 225 208 222 246 148 181 277 304 344 327 336 225 246 244 219 251 193 189 173 186 197 216 202 235 237 142 338 176 214 142 351 265 212
341 355 358 354 3 5 358 4 11 344 303 277 225 244 218 184 228 272 42 235 160 250 232 250 213 255 93 257 151 190 190 193 199 193 223 236 64 146 227 9 332 315 259 186
336 348 350 350 353 355 22 349 30 339 245 303 302 274 268 254 291 313 11 342 294 23 278 233 273 223 262 286 195 150 210 289 222 231 201 75 125 327 284 279 284 255 231 199
329 334 338 342 346 344 343 315 321 264 290 271 264 217 159 219 232 243 261 213 299 190 329 330 331 265 272 242 145 268 181 191 244 223 163 243 262 250 248 263 284 294 216 184
323 326 330 333 336 334 333 299 112 300 291 296 344 340 294 184 194 210 223 322 38 19 255 324 322 310 333 322 334 288 14 191 172 272 241 253 248 252 301 301 313 180 162 179
317 320 323 325 329 328 322 262 227 234 332 319 302 307 307 259 197 200 205 212 268 343 336 329 346 324 295 248 273 247 328 17 277 23 352 333 41 15 275 310 27 111 153 143
313 315 317 316 320 330 294 217 168 195 203 287 309 358 276 333 33 165 170 184 210 257 281 277 266 233 277 302 277 53 81 352 307 302 332 304 350 62 53 1 303 137 143 143
309 311 309 305 301 269 255 7 30 166 205 278 302 309 67 298 151 117 126 175 183 222 216 225 234 192 222 263 262 10 323 318 319 321 275 173 50 26 113 98 112 127 115 119
312 311 306 288 236 230 263 216 210 165 265 272 308 286 289 7 110 136 162 150 202 199 235 192 226 157 223 244 265 327 332 320 322 5 302 316 322 199 115 122 133 131 130 132
313 317 103 126 157 186 41 50 112 181 298 317 272 287 79 349 69 107 145 191 196 111 223 213 187 188 222 239 327 334 335 323 309 316 300 253 268 175 163 157 163 162 160 150
311 233 235 170 115 322 269 210 201 199 186 215 256 277 275 306 356 106 240 201 237 218 192 142 218 219 122 81 342 310 311 312 315 314 283 324 308 286 189 183 179 180 175 158
36 323 208 350 314 205 220 193 213 137 235 209 239 240 297 127 308 1 0 354 283 257 118 232 197 200 135 359 325 324 303 300 297 283 281 280 277 282 269 201 191 183 173 169
315 314 288 272 199 134 246 215 165 216 259 177 233 256 220 257 290 270 147 281 229 251 147 223 199 151 102 343 335 329 323 307 293 279 276 271 266 255 250 226 199 188 173 163
157 215 202 243 108 137 215 184 168 298 333 30 343 277 268 188 232 238 235 239 237 297 229 209 104 122 350 335 326 321 314 300 292 281 275 275 274 244 221 211 197 179 172 165
230 191 141 238 179 234 209 165 125 232 228 304 308 273 273 82 224 229 239 236 261 250 258 103 20 340 331 327 322 310 308 300 294 291 284 277 264 219 186 191 188 176 165 156
215 204 172 208 284 262 283 314 286 85 303 282 236 212 284 207 247 240 302 248 209 30 337 292 304 314 313 314 311 307 303 302 301 292 279 270 198 156 136 142 152 155 158 152
235 229 230 210 265 353 64 45 94 12 336 220 226 353 262 198 318 256 229 268 168 198 237 298 304 296 296 295 294 295 293 305 299 283 198 124 126 119 113 120 122 130 145 152
230 164 238 301 289 289 2 360 7 334 298 28 348 271 331 306 250 244 283 151 219 295 301 297 277 279 283 280 289 308 318 353 76 116 103 101 101 102 96 89 81 94 112 122